Time,TemperatureF,DewpointF,PressureIn,WindDirection,WindDirectionDegrees,WindSpeedMPH,WindSpeedGustMPH,Humidity,HourlyPrecipIn,Conditions,Clouds,dailyrainin,SoftwareType,DateUTC
2013-01-27 00:00:00,20.8,5.8,30.46,NE,45,0.0,0.0,52,0.00,,,0.00,WUHU216HW,2013-01-27 05:00:00,
2013-01-27 00:01:00,20.8,5.8,30.45,NE,45,0.0,0.0,52,0.00,,,0.00,WUHU216HW,2013-01-27 05:01:00,
2013-01-27 00:02:00,20.8,5.8,30.45,NE,45,0.0,0.0,52,0.00,,,0.00,WUHU216HW,2013-01-27 05:02:00,
2013-01-27 00:11:00,20.8,5.8,30.45,NE,45,0.0,0.0,52,0.00,,,0.00,WUHU216HW,2013-01-27 05:11:00,
2013-01-27 00:16:00,20.6,5.6,30.45,NE,45,0.0,0.0,52,0.00,,,0.00,WUHU216HW,2013-01-27 05:16:00,
2013-01-27 00:21:00,20.6,5.6,30.45,NE,45,0.0,0.0,52,0.00,,,0.00,WUHU216HW,2013-01-27 05:21:00,
2013-01-27 00:26:00,20.6,5.6,30.46,NE,45,0.0,0.0,52,0.00,,,0.00,WUHU216HW,2013-01-27 05:26:00,
2013-01-27 00:31:00,20.6,5.6,30.46,NE,45,0.0,0.0,52,0.00,,,0.00,WUHU216HW,2013-01-27 05:31:00,
2013-01-27 00:36:00,20.4,5.5,30.45,NE,45,0.0,0.0,52,0.00,,,0.00,WUHU216HW,2013-01-27 05:36:00,
2013-01-27 00:41:00,20.4,5.5,30.44,NE,45,0.0,0.0,52,0.00,,,0.00,WUHU216HW,2013-01-27 05:41:00,
2013-01-27 00:46:00,20.3,5.3,30.44,NE,45,0.0,0.0,52,0.00,,,0.00,WUHU216HW,2013-01-27 05:46:00,
2013-01-27 00:51:00,20.3,5.3,30.44,NE,45,0.0,0.0,52,0.00,,,0.00,WUHU216HW,2013-01-27 05:51:00,
2013-01-27 00:56:00,20.1,5.1,30.43,NE,45,0.0,0.0,52,0.00,,,0.00,WUHU216HW,2013-01-27 05:56:00,
2013-01-27 01:01:00,20.1,4.7,30.44,NE,45,0.0,0.0,51,0.00,,,0.00,WUHU216HW,2013-01-27 06:01:00,
2013-01-27 01:10:00,20.1,4.7,30.44,NE,45,0.0,0.0,51,0.00,,,0.00,WUHU216HW,2013-01-27 06:10:00,
2013-01-27 01:15:00,19.7,4.4,30.45,NE,45,0.0,0.0,51,0.00,,,0.00,WUHU216HW,2013-01-27 06:15:00,
2013-01-27 01:20:00,19.5,4.2,30.45,NE,45,0.0,0.0,51,0.00,,,0.00,WUHU216HW,2013-01-27 06:20:00,
2013-01-27 01:25:00,19.5,4.2,30.44,NE,45,0.0,0.0,51,0.00,,,0.00,WUHU216HW,2013-01-27 06:25:00,
2013-01-27 01:30:00,19.5,4.6,30.45,NE,45,0.0,0.0,52,0.00,,,0.00,WUHU216HW,2013-01-27 06:30:00,
2013-01-27 01:35:00,19.5,4.6,30.45,NE,45,0.0,0.0,52,0.00,,,0.00,WUHU216HW,2013-01-27 06:35:00,
2013-01-27 01:40:00,19.5,4.6,30.45,NE,45,0.0,0.0,52,0.00,,,0.00,WUHU216HW,2013-01-27 06:40:00,
2013-01-27 01:45:00,19.5,4.6,30.46,NE,45,0.0,0.0,52,0.00,,,0.00,WUHU216HW,2013-01-27 06:45:00,
2013-01-27 01:50:00,19.5,4.6,30.46,NE,45,0.0,0.0,52,0.00,,,0.00,WUHU216HW,2013-01-27 06:50:00,
2013-01-27 01:55:00,19.4,4.3,30.46,NE,45,0.0,0.0,52,0.00,,,0.00,WUHU216HW,2013-01-27 06:55:00,
2013-01-27 02:00:00,19.4,4.5,30.46,NE,45,0.0,0.0,52,0.00,,,0.00,WUHU216HW,2013-01-27 07:00:00,
2013-01-27 02:13:00,19.4,4.5,30.46,NE,45,0.0,0.0,52,0.00,,,0.00,WUHU216HW,2013-01-27 07:13:00,
2013-01-27 02:18:00,19.5,4.6,30.46,NE,45,0.0,0.0,52,0.00,,,0.00,WUHU216HW,2013-01-27 07:18:00,
2013-01-27 02:23:00,19.4,4.5,30.47,NE,45,0.0,0.0,52,0.00,,,0.00,WUHU216HW,2013-01-27 07:23:00,
2013-01-27 02:28:00,19.2,4.3,30.46,NE,45,0.0,0.0,52,0.00,,,0.00,WUHU216HW,2013-01-27 07:28:00,
2013-01-27 02:33:00,19.2,4.3,30.47,NE,45,0.0,0.0,52,0.00,,,0.00,WUHU216HW,2013-01-27 07:33:00,
2013-01-27 02:38:00,19.2,4.3,30.47,NE,45,0.0,0.0,52,0.00,,,0.00,WUHU216HW,2013-01-27 07:38:00,
2013-01-27 02:43:00,19.0,4.2,30.47,NE,45,0.0,0.0,52,0.00,,,0.00,WUHU216HW,2013-01-27 07:43:00,
2013-01-27 02:48:00,19.0,4.2,30.47,NE,45,0.0,0.0,52,0.00,,,0.00,WUHU216HW,2013-01-27 07:48:00,
2013-01-27 02:53:00,19.0,4.2,30.47,NE,45,0.0,0.0,52,0.00,,,0.00,WUHU216HW,2013-01-27 07:53:00,
2013-01-27 02:58:00,19.0,4.2,30.46,NE,45,0.0,0.0,52,0.00,,,0.00,WUHU216HW,2013-01-27 07:58:00,
2013-01-27 03:03:00,18.8,4.0,30.46,ENE,68,0.0,0.0,52,0.00,,,0.00,WUHU216HW,2013-01-27 08:03:00,
2013-01-27 03:08:00,18.6,3.8,30.45,ENE,68,0.0,0.0,52,0.00,,,0.00,WUHU216HW,2013-01-27 08:08:00,
2013-01-27 03:13:00,18.5,3.7,30.46,ENE,68,0.0,0.0,52,0.00,,,0.00,WUHU216HW,2013-01-27 08:13:00,
2013-01-27 03:18:00,18.3,3.5,30.46,ENE,68,0.0,0.0,52,0.00,,,0.00,WUHU216HW,2013-01-27 08:18:00,
2013-01-27 03:23:00,17.9,2.8,30.45,ENE,68,0.0,0.0,51,0.00,,,0.00,WUHU216HW,2013-01-27 08:23:00,
2013-01-27 03:28:00,17.7,2.6,30.46,ENE,68,0.0,0.0,51,0.00,,,0.00,WUHU216HW,2013-01-27 08:28:00,
2013-01-27 03:33:00,17.6,2.5,30.46,ENE,68,0.0,0.0,51,0.00,,,0.00,WUHU216HW,2013-01-27 08:33:00,
2013-01-27 03:38:00,17.4,2.3,30.46,ENE,68,0.0,0.0,51,0.00,,,0.00,WUHU216HW,2013-01-27 08:38:00,
2013-01-27 03:43:00,17.2,2.1,30.46,ENE,68,0.0,0.0,51,0.00,,,0.00,WUHU216HW,2013-01-27 08:43:00,
2013-01-27 03:48:00,17.2,2.5,30.46,ENE,68,0.0,0.0,52,0.00,,,0.00,WUHU216HW,2013-01-27 08:48:00,
2013-01-27 03:53:00,17.2,2.5,30.47,ENE,68,0.0,0.0,52,0.00,,,0.00,WUHU216HW,2013-01-27 08:53:00,
2013-01-27 03:58:00,17.2,2.4,30.47,ENE,68,0.0,0.0,52,0.00,,,0.00,WUHU216HW,2013-01-27 08:58:00,
2013-01-27 04:03:00,17.0,2.4,30.47,ENE,68,0.0,0.0,52,0.00,,,0.00,WUHU216HW,2013-01-27 09:03:00,
2013-01-27 04:08:00,17.0,2.4,30.46,ENE,68,0.0,0.0,52,0.00,,,0.00,WUHU216HW,2013-01-27 09:08:00,
2013-01-27 04:13:00,17.0,2.4,30.46,ENE,68,0.0,0.0,52,0.00,,,0.00,WUHU216HW,2013-01-27 09:13:00,
2013-01-27 04:18:00,16.8,2.2,30.46,ENE,68,0.0,0.0,52,0.00,,,0.00,WUHU216HW,2013-01-27 09:18:00,
2013-01-27 04:23:00,16.7,2.0,30.47,ENE,68,0.0,0.0,52,0.00,,,0.00,WUHU216HW,2013-01-27 09:23:00,
2013-01-27 04:28:00,16.7,2.0,30.46,ENE,68,0.0,0.0,52,0.00,,,0.00,WUHU216HW,2013-01-27 09:28:00,
2013-01-27 04:33:00,16.5,1.9,30.47,ENE,68,0.0,0.0,52,0.00,,,0.00,WUHU216HW,2013-01-27 09:33:00,
2013-01-27 04:38:00,16.5,1.9,30.46,ENE,68,0.0,0.0,52,0.00,,,0.00,WUHU216HW,2013-01-27 09:38:00,
2013-01-27 04:43:00,16.5,1.9,30.46,ENE,68,0.0,0.0,52,0.00,,,0.00,WUHU216HW,2013-01-27 09:43:00,
2013-01-27 04:48:00,16.3,1.7,30.46,ENE,68,0.0,0.0,52,0.00,,,0.00,WUHU216HW,2013-01-27 09:48:00,
2013-01-27 04:53:00,16.3,1.7,30.46,ENE,68,0.0,0.0,52,0.00,,,0.00,WUHU216HW,2013-01-27 09:53:00,
2013-01-27 04:58:00,16.3,1.5,30.46,ENE,68,0.0,0.0,52,0.00,,,0.00,WUHU216HW,2013-01-27 09:58:00,
2013-01-27 05:03:00,16.1,1.5,30.45,ENE,68,0.0,0.0,52,0.00,,,0.00,WUHU216HW,2013-01-27 10:03:00,
2013-01-27 05:08:00,16.1,1.5,30.45,ENE,68,0.0,0.0,52,0.00,,,0.00,WUHU216HW,2013-01-27 10:08:00,
2013-01-27 05:13:00,15.9,1.4,30.46,ENE,68,0.0,0.0,52,0.00,,,0.00,WUHU216HW,2013-01-27 10:13:00,
2013-01-27 05:18:00,15.9,1.4,30.45,ENE,68,0.0,0.0,52,0.00,,,0.00,WUHU216HW,2013-01-27 10:18:00,
2013-01-27 05:23:00,15.9,1.4,30.45,ENE,68,0.0,0.0,52,0.00,,,0.00,WUHU216HW,2013-01-27 10:23:00,
2013-01-27 05:28:00,15.9,1.7,30.46,ENE,68,0.0,0.0,53,0.00,,,0.00,WUHU216HW,2013-01-27 10:28:00,
2013-01-27 05:33:00,15.9,1.7,30.46,ENE,68,0.0,0.0,53,0.00,,,0.00,WUHU216HW,2013-01-27 10:33:00,
2013-01-27 05:38:00,15.9,1.7,30.46,ENE,68,0.0,0.0,53,0.00,,,0.00,WUHU216HW,2013-01-27 10:38:00,
2013-01-27 05:43:00,15.8,1.6,30.46,ENE,68,0.0,0.0,53,0.00,,,0.00,WUHU216HW,2013-01-27 10:43:00,
2013-01-27 05:48:00,15.6,1.4,30.46,ENE,68,0.0,0.0,53,0.00,,,0.00,WUHU216HW,2013-01-27 10:48:00,
2013-01-27 05:53:00,15.6,1.4,30.47,ENE,68,0.0,0.0,53,0.00,,,0.00,WUHU216HW,2013-01-27 10:53:00,
2013-01-27 05:58:00,15.6,1.4,30.47,ENE,68,0.0,0.0,53,0.00,,,0.00,WUHU216HW,2013-01-27 10:58:00,
2013-01-27 06:03:00,15.4,1.2,30.48,ENE,68,0.0,0.0,53,0.00,,,0.00,WUHU216HW,2013-01-27 11:03:00,
2013-01-27 06:08:00,15.4,1.2,30.48,ENE,68,0.0,0.0,53,0.00,,,0.00,WUHU216HW,2013-01-27 11:08:00,
2013-01-27 06:13:00,15.4,1.2,30.47,ENE,68,0.0,0.0,53,0.00,,,0.00,WUHU216HW,2013-01-27 11:13:00,
2013-01-27 06:18:00,15.2,1.0,30.48,ENE,68,0.0,0.0,53,0.00,,,0.00,WUHU216HW,2013-01-27 11:18:00,
2013-01-27 06:23:00,15.2,1.0,30.48,ENE,68,0.0,0.0,53,0.00,,,0.00,WUHU216HW,2013-01-27 11:23:00,
2013-01-27 06:28:00,15.2,1.0,30.47,ENE,68,0.0,0.0,53,0.00,,,0.00,WUHU216HW,2013-01-27 11:28:00,
2013-01-27 06:33:00,15.2,1.0,30.47,ENE,68,0.0,0.0,53,0.00,,,0.00,WUHU216HW,2013-01-27 11:33:00,
2013-01-27 06:38:00,15.2,1.0,30.46,East,90,0.0,0.0,53,0.00,,,0.00,WUHU216HW,2013-01-27 11:38:00,
2013-01-27 06:43:00,15.0,0.9,30.47,East,90,0.0,0.0,53,0.00,,,0.00,WUHU216HW,2013-01-27 11:43:00,
2013-01-27 06:48:00,15.0,1.3,30.47,East,90,0.0,0.0,54,0.00,,,0.00,WUHU216HW,2013-01-27 11:48:00,
2013-01-27 06:53:00,14.9,1.1,30.48,ENE,68,0.0,0.0,54,0.00,,,0.00,WUHU216HW,2013-01-27 11:53:00,
2013-01-27 06:58:00,15.0,1.3,30.47,East,90,0.0,0.0,54,0.00,,,0.00,WUHU216HW,2013-01-27 11:58:00,
2013-01-27 07:03:00,15.0,1.3,30.47,East,90,0.0,0.0,54,0.00,,,0.00,WUHU216HW,2013-01-27 12:03:00,
2013-01-27 07:08:00,14.9,1.1,30.48,East,90,0.0,0.0,54,0.00,,,0.00,WUHU216HW,2013-01-27 12:08:00,
2013-01-27 07:13:00,14.9,1.1,30.48,East,90,0.0,0.0,54,0.00,,,0.00,WUHU216HW,2013-01-27 12:13:00,
2013-01-27 07:18:00,14.9,1.1,30.48,ENE,68,0.0,0.0,54,0.00,,,0.00,WUHU216HW,2013-01-27 12:18:00,
2013-01-27 07:23:00,14.9,1.1,30.48,ENE,68,0.0,0.0,54,0.00,,,0.00,WUHU216HW,2013-01-27 12:23:00,
2013-01-27 07:28:00,14.9,1.1,30.48,ENE,68,0.0,0.0,54,0.00,,,0.00,WUHU216HW,2013-01-27 12:28:00,
2013-01-27 07:33:00,14.9,1.5,30.48,ENE,68,0.0,0.0,55,0.00,,,0.00,WUHU216HW,2013-01-27 12:33:00,
2013-01-27 07:38:00,14.7,1.3,30.48,ENE,68,0.0,0.0,55,0.00,,,0.00,WUHU216HW,2013-01-27 12:38:00,
2013-01-27 07:43:00,14.7,1.3,30.48,ENE,68,0.0,0.0,55,0.00,,,0.00,WUHU216HW,2013-01-27 12:43:00,
2013-01-27 07:48:00,14.9,1.5,30.48,ENE,68,0.0,0.0,55,0.00,,,0.00,WUHU216HW,2013-01-27 12:48:00,
2013-01-27 07:53:00,14.9,1.5,30.48,East,90,0.0,0.0,55,0.00,,,0.00,WUHU216HW,2013-01-27 12:53:00,
2013-01-27 07:58:00,14.9,1.5,30.48,ENE,68,0.0,0.0,55,0.00,,,0.00,WUHU216HW,2013-01-27 12:58:00,
2013-01-27 08:03:00,15.0,1.7,30.48,East,90,0.0,0.0,55,0.00,,,0.00,WUHU216HW,2013-01-27 13:03:00,
2013-01-27 08:08:00,15.0,1.7,30.48,East,90,0.0,0.0,55,0.00,,,0.00,WUHU216HW,2013-01-27 13:08:00,
2013-01-27 08:13:00,15.2,2.2,30.48,East,90,0.0,0.0,56,0.00,,,0.00,WUHU216HW,2013-01-27 13:13:00,
2013-01-27 08:18:00,15.4,2.4,30.48,East,90,0.0,0.0,56,0.00,,,0.00,WUHU216HW,2013-01-27 13:18:00,
2013-01-27 08:23:00,15.4,2.4,30.50,East,90,0.0,0.0,56,0.00,,,0.00,WUHU216HW,2013-01-27 13:23:00,
2013-01-27 08:28:00,15.6,2.5,30.50,East,90,0.0,0.0,56,0.00,,,0.00,WUHU216HW,2013-01-27 13:28:00,
2013-01-27 08:33:00,15.9,2.9,30.50,East,90,0.0,0.0,56,0.00,,,0.00,WUHU216HW,2013-01-27 13:33:00,
2013-01-27 08:38:00,16.1,3.4,30.51,East,90,0.0,0.0,57,0.00,,,0.00,WUHU216HW,2013-01-27 13:38:00,
2013-01-27 08:43:00,16.5,3.8,30.50,ENE,68,0.0,0.0,57,0.00,,,0.00,WUHU216HW,2013-01-27 13:43:00,
2013-01-27 08:48:00,16.7,4.0,30.49,East,90,0.0,0.0,57,0.00,,,0.00,WUHU216HW,2013-01-27 13:48:00,
2013-01-27 08:53:00,17.0,4.3,30.48,ENE,68,0.0,0.0,57,0.00,,,0.00,WUHU216HW,2013-01-27 13:53:00,
2013-01-27 08:58:00,17.4,5.1,30.48,East,90,0.0,0.0,58,0.00,,,0.00,WUHU216HW,2013-01-27 13:58:00,
2013-01-27 09:03:00,17.7,5.4,30.48,East,90,0.0,0.0,58,0.00,,,0.00,WUHU216HW,2013-01-27 14:03:00,
2013-01-27 09:08:00,18.1,5.7,30.48,ENE,68,0.0,2.6,58,0.00,,,0.00,WUHU216HW,2013-01-27 14:08:00,
2013-01-27 09:13:00,18.5,6.0,30.48,East,90,0.0,0.0,58,0.00,,,0.00,WUHU216HW,2013-01-27 14:13:00,
2013-01-27 09:18:00,18.8,6.4,30.49,ENE,68,0.0,0.0,58,0.00,,,0.00,WUHU216HW,2013-01-27 14:18:00,
2013-01-27 09:23:00,19.2,6.7,30.49,ENE,68,0.0,0.0,58,0.00,,,0.00,WUHU216HW,2013-01-27 14:23:00,
2013-01-27 09:28:00,19.5,7.0,30.50,NNE,23,0.0,0.0,58,0.00,,,0.00,WUHU216HW,2013-01-27 14:28:00,
2013-01-27 09:33:00,20.1,7.6,30.51,NNE,23,0.0,0.0,58,0.00,,,0.00,WUHU216HW,2013-01-27 14:33:00,
2013-01-27 09:38:00,20.3,7.9,30.51,ENE,68,0.0,0.0,58,0.00,,,0.00,WUHU216HW,2013-01-27 14:38:00,
2013-01-27 09:43:00,20.8,8.3,30.50,NE,45,0.0,0.0,58,0.00,,,0.00,WUHU216HW,2013-01-27 14:43:00,
2013-01-27 09:48:00,21.3,8.8,30.50,NE,45,0.0,0.0,58,0.00,,,0.00,WUHU216HW,2013-01-27 14:48:00,
2013-01-27 09:53:00,21.9,9.3,30.50,ENE,68,0.0,0.0,58,0.00,,,0.00,WUHU216HW,2013-01-27 14:53:00,
2013-01-27 09:58:00,22.4,9.8,30.49,ESE,113,0.0,0.0,58,0.00,,,0.00,WUHU216HW,2013-01-27 14:58:00,
2013-01-27 10:03:00,23.1,10.4,30.50,ENE,68,0.0,0.0,58,0.00,,,0.00,WUHU216HW,2013-01-27 15:03:00,
2013-01-27 10:08:00,23.3,10.2,30.50,ESE,113,0.0,0.0,57,0.00,,,0.00,WUHU216HW,2013-01-27 15:08:00,
2013-01-27 10:13:00,23.7,10.6,30.50,SE,135,0.0,0.0,57,0.00,,,0.00,WUHU216HW,2013-01-27 15:13:00,
2013-01-27 10:18:00,24.2,10.7,30.50,SE,135,0.0,0.0,56,0.00,,,0.00,WUHU216HW,2013-01-27 15:18:00,
2013-01-27 10:23:00,24.9,11.4,30.50,East,90,0.0,1.5,56,0.00,,,0.00,WUHU216HW,2013-01-27 15:23:00,
2013-01-27 10:28:00,25.7,12.0,30.49,SE,135,0.0,1.5,56,0.00,,,0.00,WUHU216HW,2013-01-27 15:28:00,
2013-01-27 10:33:00,26.4,12.7,30.49,SE,135,0.0,0.0,56,0.00,,,0.00,WUHU216HW,2013-01-27 15:33:00,
2013-01-27 10:38:00,27.1,13.0,30.50,SE,135,0.0,0.0,55,0.00,,,0.00,WUHU216HW,2013-01-27 15:38:00,
2013-01-27 10:43:00,27.8,13.7,30.49,SE,135,0.0,0.0,55,0.00,,,0.00,WUHU216HW,2013-01-27 15:43:00,
2013-01-27 10:48:00,28.5,13.8,30.49,ESE,113,0.0,0.0,54,0.00,,,0.00,WUHU216HW,2013-01-27 15:48:00,
2013-01-27 10:53:00,29.1,14.5,30.50,SSE,158,0.0,0.0,54,0.00,,,0.00,WUHU216HW,2013-01-27 15:53:00,
2013-01-27 10:58:00,29.4,14.4,30.49,ESE,113,0.0,0.0,53,0.00,,,0.00,WUHU216HW,2013-01-27 15:58:00,
2013-01-27 11:03:00,29.8,14.3,30.49,ESE,113,0.0,0.0,52,0.00,,,0.00,WUHU216HW,2013-01-27 16:03:00,
2013-01-27 11:08:00,30.3,14.8,30.49,SSE,158,0.0,0.0,52,0.00,,,0.00,WUHU216HW,2013-01-27 16:08:00,
2013-01-27 11:13:00,30.9,15.2,30.49,East,90,0.0,0.0,52,0.00,,,0.00,WUHU216HW,2013-01-27 16:13:00,
2013-01-27 11:18:00,31.8,16.1,30.49,WNW,293,0.0,0.0,52,0.00,,,0.00,WUHU216HW,2013-01-27 16:18:00,
2013-01-27 11:23:00,32.7,16.5,30.48,ESE,113,0.0,0.0,51,0.00,,,0.00,WUHU216HW,2013-01-27 16:23:00,
2013-01-27 11:28:00,33.4,17.1,30.48,NE,45,0.0,0.0,51,0.00,,,0.00,WUHU216HW,2013-01-27 16:28:00,
2013-01-27 11:33:00,34.3,18.0,30.47,NE,45,0.0,0.0,51,0.00,,,0.00,WUHU216HW,2013-01-27 16:33:00,
2013-01-27 11:38:00,34.8,18.1,30.47,ESE,113,0.0,0.0,50,0.00,,,0.00,WUHU216HW,2013-01-27 16:38:00,
2013-01-27 11:43:00,35.0,17.7,30.47,ESE,113,0.0,0.0,49,0.00,,,0.00,WUHU216HW,2013-01-27 16:43:00,
2013-01-27 11:48:00,34.7,16.9,30.47,ESE,113,0.0,0.0,48,0.00,,,0.00,WUHU216HW,2013-01-27 16:48:00,
2013-01-27 11:53:00,34.3,15.5,30.47,SE,135,0.0,0.0,46,0.00,,,0.00,WUHU216HW,2013-01-27 16:53:00,
2013-01-27 11:58:00,34.3,16.0,30.47,ESE,113,0.0,0.0,47,0.00,,,0.00,WUHU216HW,2013-01-27 16:58:00,
2013-01-27 12:03:00,34.3,16.0,30.47,ENE,68,0.0,0.0,47,0.00,,,0.00,WUHU216HW,2013-01-27 17:03:00,
2013-01-27 12:08:00,34.3,16.2,30.46,South,180,2.2,2.2,47,0.00,,,0.00,WUHU216HW,2013-01-27 17:08:00,
2013-01-27 12:13:00,34.3,16.0,30.47,ENE,68,0.0,2.2,47,0.00,,,0.00,WUHU216HW,2013-01-27 17:13:00,
2013-01-27 12:18:00,34.3,16.0,30.46,ESE,113,0.0,0.0,47,0.00,,,0.00,WUHU216HW,2013-01-27 17:18:00,
2013-01-27 12:23:00,34.3,15.5,30.45,ESE,113,0.0,0.0,46,0.00,,,0.00,WUHU216HW,2013-01-27 17:23:00,
2013-01-27 12:28:00,34.1,15.3,30.45,East,90,0.0,0.0,46,0.00,,,0.00,WUHU216HW,2013-01-27 17:28:00,
2013-01-27 12:33:00,34.3,15.5,30.44,ESE,113,0.0,0.0,46,0.00,,,0.00,WUHU216HW,2013-01-27 17:33:00,
2013-01-27 12:38:00,34.3,15.5,30.44,North,0,0.0,0.0,46,0.00,,,0.00,WUHU216HW,2013-01-27 17:38:00,
2013-01-27 12:43:00,34.3,15.5,30.43,SE,135,0.0,0.0,46,0.00,,,0.00,WUHU216HW,2013-01-27 17:43:00,
2013-01-27 12:48:00,34.7,16.4,30.43,SE,135,2.2,2.2,47,0.00,,,0.00,WUHU216HW,2013-01-27 17:48:00,
2013-01-27 12:53:00,34.7,15.9,30.43,ESE,113,0.0,2.2,46,0.00,,,0.00,WUHU216HW,2013-01-27 17:53:00,
2013-01-27 12:58:00,34.7,15.9,30.43,SE,135,0.0,0.0,46,0.00,,,0.00,WUHU216HW,2013-01-27 17:58:00,
2013-01-27 13:03:00,35.0,16.2,30.43,North,0,0.0,0.0,46,0.00,,,0.00,WUHU216HW,2013-01-27 18:03:00,
2013-01-27 13:08:00,35.2,16.4,30.42,NE,45,0.0,0.0,46,0.00,,,0.00,WUHU216HW,2013-01-27 18:08:00,
2013-01-27 13:13:00,35.7,16.9,30.42,SE,135,0.0,0.0,46,0.00,,,0.00,WUHU216HW,2013-01-27 18:13:00,
2013-01-27 13:18:00,36.8,18.4,30.41,ESE,113,0.0,0.0,47,0.00,,,0.00,WUHU216HW,2013-01-27 18:18:00,
2013-01-27 13:23:00,38.1,19.5,30.41,ESE,113,0.0,0.0,47,0.00,,,0.00,WUHU216HW,2013-01-27 18:23:00,
2013-01-27 13:28:00,39.5,20.8,30.41,SSE,158,0.0,0.0,47,0.00,,,0.00,WUHU216HW,2013-01-27 18:28:00,
2013-01-27 13:33:00,40.6,21.3,30.41,ENE,68,0.0,0.0,46,0.00,,,0.00,WUHU216HW,2013-01-27 18:33:00,
2013-01-27 13:38:00,41.7,21.7,30.41,NE,45,0.0,2.4,45,0.00,,,0.00,WUHU216HW,2013-01-27 18:38:00,
2013-01-27 13:43:00,42.9,22.4,30.40,ESE,113,0.0,2.4,44,0.00,,,0.00,WUHU216HW,2013-01-27 18:43:00,
2013-01-27 13:48:00,43.1,21.5,30.40,East,90,0.0,0.0,42,0.00,,,0.00,WUHU216HW,2013-01-27 18:48:00,
2013-01-27 13:53:00,42.8,20.8,30.40,SE,135,0.0,2.4,41,0.00,,,0.00,WUHU216HW,2013-01-27 18:53:00,
2013-01-27 13:58:00,42.6,19.9,30.40,ESE,113,0.0,2.4,40,0.00,,,0.00,WUHU216HW,2013-01-27 18:58:00,
2013-01-27 14:03:00,43.3,21.3,30.40,SE,135,1.3,1.7,41,0.00,,,0.00,WUHU216HW,2013-01-27 19:03:00,
2013-01-27 14:10:00,44.0,21.2,30.39,NNE,23,0.0,1.3,40,0.00,,,0.00,WUHU216HW,2013-01-27 19:10:00,
2013-01-27 14:15:00,45.3,22.3,30.39,ENE,68,0.0,0.0,40,0.00,,,0.00,WUHU216HW,2013-01-27 19:15:00,
2013-01-27 14:20:00,46.0,21.7,30.38,SE,135,0.0,0.0,38,0.00,,,0.00,WUHU216HW,2013-01-27 19:20:00,
2013-01-27 14:25:00,45.5,20.5,30.38,ESE,113,0.0,0.0,37,0.00,,,0.00,WUHU216HW,2013-01-27 19:25:00,
2013-01-27 14:30:00,45.1,19.5,30.38,ESE,113,0.0,0.0,36,0.00,,,0.00,WUHU216HW,2013-01-27 19:30:00,
2013-01-27 14:35:00,45.5,20.5,30.39,SE,135,0.0,0.0,37,0.00,,,0.00,WUHU216HW,2013-01-27 19:35:00,
2013-01-27 14:40:00,47.3,22.1,30.38,ENE,68,0.0,0.0,37,0.00,,,0.00,WUHU216HW,2013-01-27 19:40:00,
2013-01-27 14:45:00,47.3,21.5,30.38,NE,45,1.3,1.3,36,0.00,,,0.00,WUHU216HW,2013-01-27 19:45:00,
2013-01-27 14:50:00,46.7,20.3,30.38,SSE,158,0.0,1.3,35,0.00,,,0.00,WUHU216HW,2013-01-27 19:50:00,
2013-01-27 14:55:00,45.8,19.5,30.38,SE,135,0.0,3.3,35,0.00,,,0.00,WUHU216HW,2013-01-27 19:55:00,
2013-01-27 15:00:00,44.9,18.0,30.38,SE,135,0.0,0.0,34,0.00,,,0.00,WUHU216HW,2013-01-27 20:00:00,
2013-01-27 15:05:00,44.9,18.0,30.38,ENE,68,0.0,0.0,34,0.00,,,0.00,WUHU216HW,2013-01-27 20:05:00,
2013-01-27 15:10:00,45.5,19.8,30.38,NNW,338,0.0,0.0,36,0.00,,,0.00,WUHU216HW,2013-01-27 20:10:00,
2013-01-27 15:15:00,46.7,21.0,30.38,ESE,113,0.0,0.0,36,0.00,,,0.00,WUHU216HW,2013-01-27 20:15:00,
2013-01-27 15:20:00,47.3,21.5,30.38,ESE,113,0.0,0.0,36,0.00,,,0.00,WUHU216HW,2013-01-27 20:20:00,
2013-01-27 15:25:00,47.4,21.0,30.37,SE,135,0.0,0.0,35,0.00,,,0.00,WUHU216HW,2013-01-27 20:25:00,
2013-01-27 15:30:00,47.3,20.0,30.37,East,90,0.0,0.0,34,0.00,,,0.00,WUHU216HW,2013-01-27 20:30:00,
2013-01-27 15:35:00,46.4,18.6,30.38,SSE,158,0.0,0.0,33,0.00,,,0.00,WUHU216HW,2013-01-27 20:35:00,
2013-01-27 15:40:00,45.5,17.2,30.38,SE,135,0.0,0.0,32,0.00,,,0.00,WUHU216HW,2013-01-27 20:40:00,
2013-01-27 15:45:00,44.4,14.9,30.37,East,90,0.0,0.0,30,0.00,,,0.00,WUHU216HW,2013-01-27 20:45:00,
2013-01-27 15:50:00,43.3,13.9,30.36,SE,135,0.0,0.0,30,0.00,,,0.00,WUHU216HW,2013-01-27 20:50:00,
2013-01-27 15:55:00,42.2,11.2,30.36,SE,135,0.0,0.0,28,0.00,,,0.00,WUHU216HW,2013-01-27 20:55:00,
2013-01-27 16:00:00,41.0,7.5,30.36,ESE,113,0.0,0.0,25,0.00,,,0.00,WUHU216HW,2013-01-27 21:00:00,
2013-01-27 16:05:00,40.1,11.2,30.36,ENE,68,0.0,0.0,30,0.00,,,0.00,WUHU216HW,2013-01-27 21:05:00,
2013-01-27 16:10:00,39.5,12.1,30.35,ESE,113,0.0,0.0,32,0.00,,,0.00,WUHU216HW,2013-01-27 21:10:00,
2013-01-27 16:15:00,39.0,12.1,30.35,ESE,113,0.0,0.0,33,0.00,,,0.00,WUHU216HW,2013-01-27 21:15:00,
2013-01-27 16:20:00,38.6,13.1,30.35,East,90,0.0,0.0,35,0.00,,,0.00,WUHU216HW,2013-01-27 21:20:00,
2013-01-27 16:25:00,38.3,12.8,30.35,ESE,113,0.0,0.0,35,0.00,,,0.00,WUHU216HW,2013-01-27 21:25:00,
2013-01-27 16:30:00,37.7,12.3,30.35,East,90,0.0,0.0,36,0.00,,,0.00,WUHU216HW,2013-01-27 21:30:00,
2013-01-27 16:35:00,37.2,13.3,30.36,NE,45,0.0,0.0,36,0.00,,,0.00,WUHU216HW,2013-01-27 21:35:00,
2013-01-27 16:40:00,36.8,12.8,30.35,ESE,113,0.0,0.0,37,0.00,,,0.00,WUHU216HW,2013-01-27 21:40:00,
2013-01-27 16:45:00,36.5,13.1,30.35,NNE,23,0.0,0.0,38,0.00,,,0.00,WUHU216HW,2013-01-27 21:45:00,
2013-01-27 16:50:00,36.1,12.8,30.35,East,90,0.0,0.0,38,0.00,,,0.00,WUHU216HW,2013-01-27 21:50:00,
2013-01-27 16:55:00,35.9,13.3,30.33,ESE,113,0.0,0.0,39,0.00,,,0.00,WUHU216HW,2013-01-27 21:55:00,
2013-01-27 17:00:00,35.7,13.8,30.34,SE,135,0.0,0.0,40,0.00,,,0.00,WUHU216HW,2013-01-27 22:00:00,
2013-01-27 17:05:00,35.2,13.3,30.34,East,90,0.0,0.0,40,0.00,,,0.00,WUHU216HW,2013-01-27 22:05:00,
2013-01-27 17:10:00,34.8,12.9,30.35,SSE,158,0.0,1.3,40,0.00,,,0.00,WUHU216HW,2013-01-27 22:10:00,
2013-01-27 17:15:00,34.7,12.8,30.34,SE,135,0.0,1.3,40,0.00,,,0.00,WUHU216HW,2013-01-27 22:15:00,
2013-01-27 17:20:00,34.3,12.5,30.35,SE,135,0.0,0.0,40,0.00,,,0.00,WUHU216HW,2013-01-27 22:20:00,
2013-01-27 17:26:00,34.1,12.8,30.35,SE,135,0.0,0.0,41,0.00,,,0.00,WUHU216HW,2013-01-27 22:26:00,
2013-01-27 17:31:00,33.9,12.6,30.35,ESE,113,0.0,0.0,41,0.00,,,0.00,WUHU216HW,2013-01-27 22:31:00,
2013-01-27 17:36:00,33.9,13.1,30.35,ENE,68,0.0,0.0,42,0.00,,,0.00,WUHU216HW,2013-01-27 22:36:00,
2013-01-27 17:41:00,33.6,12.8,30.35,ENE,68,0.0,0.0,42,0.00,,,0.00,WUHU216HW,2013-01-27 22:41:00,
2013-01-27 17:46:00,33.4,12.7,30.35,East,90,0.0,0.0,42,0.00,,,0.00,WUHU216HW,2013-01-27 22:46:00,
2013-01-27 17:51:00,33.4,13.2,30.35,ENE,68,0.0,0.0,43,0.00,,,0.00,WUHU216HW,2013-01-27 22:51:00,
2013-01-27 17:56:00,33.2,13.0,30.34,ENE,68,0.0,0.0,43,0.00,,,0.00,WUHU216HW,2013-01-27 22:56:00,
2013-01-27 18:01:00,33.0,12.8,30.34,ESE,113,0.0,0.0,44,0.00,,,0.00,WUHU216HW,2013-01-27 23:01:00,
2013-01-27 18:06:00,33.0,13.3,30.33,East,90,0.0,0.0,44,0.00,,,0.00,WUHU216HW,2013-01-27 23:06:00,
2013-01-27 18:11:00,32.9,13.2,30.33,ESE,113,0.0,0.0,44,0.00,,,0.00,WUHU216HW,2013-01-27 23:11:00,
2013-01-27 18:16:00,32.7,13.5,30.34,East,90,0.0,0.0,45,0.00,,,0.00,WUHU216HW,2013-01-27 23:16:00,
2013-01-27 18:21:00,32.7,13.5,30.34,ENE,68,0.0,0.0,45,0.00,,,0.00,WUHU216HW,2013-01-27 23:21:00,
2013-01-27 18:26:00,32.5,13.4,30.33,SE,135,0.0,0.0,45,0.00,,,0.00,WUHU216HW,2013-01-27 23:26:00,
2013-01-27 18:31:00,32.5,13.4,30.34,SSE,158,0.0,0.0,45,0.00,,,0.00,WUHU216HW,2013-01-27 23:31:00,
2013-01-27 18:36:00,32.3,13.7,30.35,SSE,158,0.0,0.0,46,0.00,,,0.00,WUHU216HW,2013-01-27 23:36:00,
2013-01-27 18:41:00,32.3,13.7,30.34,SSE,158,0.0,0.0,46,0.00,,,0.00,WUHU216HW,2013-01-27 23:41:00,
2013-01-27 18:46:00,32.3,13.7,30.35,NE,45,0.0,0.0,46,0.00,,,0.00,WUHU216HW,2013-01-27 23:46:00,
2013-01-27 18:51:00,32.1,13.5,30.35,ENE,68,0.0,0.0,46,0.00,,,0.00,WUHU216HW,2013-01-27 23:51:00,
2013-01-27 18:57:00,32.1,13.5,30.34,ENE,68,0.0,0.0,46,0.00,,,0.00,WUHU216HW,2013-01-27 23:57:00,
2013-01-27 19:02:00,32.1,13.5,30.33,ENE,68,0.0,0.0,46,0.00,,,0.00,WUHU216HW,2013-01-28 00:02:00,
2013-01-27 19:07:00,32.1,14.0,30.33,NE,45,0.0,0.0,47,0.00,,,0.00,WUHU216HW,2013-01-28 00:07:00,
2013-01-27 19:12:00,32.1,14.0,30.33,NE,45,0.0,0.0,47,0.00,,,0.00,WUHU216HW,2013-01-28 00:12:00,
2013-01-27 19:17:00,32.1,14.0,30.34,ENE,68,0.0,0.0,47,0.00,,,0.00,WUHU216HW,2013-01-28 00:17:00,
2013-01-27 19:22:00,32.1,14.5,30.33,East,90,0.0,0.0,48,0.00,,,0.00,WUHU216HW,2013-01-28 00:22:00,
2013-01-27 19:27:00,31.8,14.2,30.33,ESE,113,0.0,0.0,48,0.00,,,0.00,WUHU216HW,2013-01-28 00:27:00,
2013-01-27 19:31:00,31.6,14.1,30.33,SE,135,0.0,0.0,48,0.00,,,0.00,WUHU216HW,2013-01-28 00:31:00,
2013-01-27 19:36:00,31.8,14.2,30.33,East,90,0.0,0.0,48,0.00,,,0.00,WUHU216HW,2013-01-28 00:36:00,
2013-01-27 19:41:00,31.6,14.1,30.32,ENE,68,0.0,0.0,48,0.00,,,0.00,WUHU216HW,2013-01-28 00:41:00,
2013-01-27 19:46:00,31.6,14.6,30.33,ENE,68,0.0,0.0,49,0.00,,,0.00,WUHU216HW,2013-01-28 00:46:00,
2013-01-27 19:51:00,31.6,14.6,30.33,NNE,23,0.0,0.0,49,0.00,,,0.00,WUHU216HW,2013-01-28 00:51:00,
2013-01-27 19:57:00,31.4,14.4,30.32,ENE,68,0.0,0.0,49,0.00,,,0.00,WUHU216HW,2013-01-28 00:57:00,
2013-01-27 20:02:00,31.6,15.1,30.32,ENE,68,0.0,0.0,50,0.00,,,0.00,WUHU216HW,2013-01-28 01:02:00,
2013-01-27 20:07:00,31.6,15.1,30.31,East,90,0.0,0.0,50,0.00,,,0.00,WUHU216HW,2013-01-28 01:07:00,
2013-01-27 20:12:00,31.6,15.1,30.31,East,90,0.0,0.0,50,0.00,,,0.00,WUHU216HW,2013-01-28 01:12:00,
2013-01-27 20:17:00,31.4,14.9,30.31,SE,135,0.0,0.0,50,0.00,,,0.00,WUHU216HW,2013-01-28 01:17:00,
2013-01-27 20:22:00,31.4,14.9,30.31,ESE,113,0.0,0.0,50,0.00,,,0.00,WUHU216HW,2013-01-28 01:22:00,
2013-01-27 20:27:00,31.4,14.9,30.30,NE,45,0.0,0.0,50,0.00,,,0.00,WUHU216HW,2013-01-28 01:27:00,
2013-01-27 20:32:00,31.4,14.9,30.30,North,0,0.0,2.0,50,0.00,,,0.00,WUHU216HW,2013-01-28 01:32:00,
2013-01-27 20:37:00,31.4,14.9,30.30,SE,135,0.0,2.0,50,0.00,,,0.00,WUHU216HW,2013-01-28 01:37:00,
2013-01-27 20:42:00,31.4,14.9,30.30,ESE,113,0.0,0.0,50,0.00,,,0.00,WUHU216HW,2013-01-28 01:42:00,
2013-01-27 20:47:00,31.6,15.1,30.30,SE,135,0.0,0.0,50,0.00,,,0.00,WUHU216HW,2013-01-28 01:47:00,
2013-01-27 20:52:00,31.6,15.1,30.30,ESE,113,0.0,0.0,50,0.00,,,0.00,WUHU216HW,2013-01-28 01:52:00,
2013-01-27 20:57:00,31.6,15.1,30.30,ESE,113,0.0,0.0,50,0.00,,,0.00,WUHU216HW,2013-01-28 01:57:00,
2013-01-27 21:02:00,31.6,15.1,30.30,SE,135,0.0,0.0,50,0.00,,,0.00,WUHU216HW,2013-01-28 02:02:00,
2013-01-27 21:07:00,31.6,15.1,30.30,SE,135,0.0,0.0,50,0.00,,,0.00,WUHU216HW,2013-01-28 02:07:00,
2013-01-27 21:12:00,31.6,15.1,30.31,SE,135,0.0,0.0,50,0.00,,,0.00,WUHU216HW,2013-01-28 02:12:00,
2013-01-27 21:17:00,31.6,15.1,30.31,East,90,0.0,0.0,50,0.00,,,0.00,WUHU216HW,2013-01-28 02:17:00,
2013-01-27 21:22:00,31.6,15.5,30.31,East,90,0.0,0.0,51,0.00,,,0.00,WUHU216HW,2013-01-28 02:22:00,
2013-01-27 21:27:00,31.8,15.6,30.31,East,90,0.0,0.0,51,0.00,,,0.00,WUHU216HW,2013-01-28 02:27:00,
2013-01-27 21:32:00,31.6,15.5,30.31,East,90,0.0,0.0,51,0.00,,,0.00,WUHU216HW,2013-01-28 02:32:00,
2013-01-27 21:37:00,31.6,15.5,30.32,East,90,0.0,0.0,51,0.00,,,0.00,WUHU216HW,2013-01-28 02:37:00,
2013-01-27 21:42:00,31.6,15.5,30.32,NW,315,0.0,0.0,51,0.00,,,0.00,WUHU216HW,2013-01-28 02:42:00,
2013-01-27 21:47:00,31.6,15.5,30.32,NNW,338,0.0,0.0,51,0.00,,,0.00,WUHU216HW,2013-01-28 02:47:00,
2013-01-27 21:52:00,31.6,15.5,30.31,NNW,338,0.0,0.0,51,0.00,,,0.00,WUHU216HW,2013-01-28 02:52:00,
2013-01-27 21:57:00,31.6,15.5,30.31,North,0,0.0,0.0,51,0.00,,,0.00,WUHU216HW,2013-01-28 02:57:00,
2013-01-27 22:02:00,31.6,15.5,30.31,North,0,0.0,0.0,51,0.00,,,0.00,WUHU216HW,2013-01-28 03:02:00,
2013-01-27 22:07:00,31.6,15.9,30.31,North,0,0.0,0.0,52,0.00,,,0.00,WUHU216HW,2013-01-28 03:07:00,
2013-01-27 22:12:00,31.6,15.9,30.30,ENE,68,0.0,0.0,52,0.00,,,0.00,WUHU216HW,2013-01-28 03:12:00,
2013-01-27 22:17:00,31.6,15.9,30.30,ESE,113,0.0,0.0,52,0.00,,,0.00,WUHU216HW,2013-01-28 03:17:00,
2013-01-27 22:22:00,31.4,15.8,30.30,ESE,113,0.0,0.0,52,0.00,,,0.00,WUHU216HW,2013-01-28 03:22:00,
2013-01-27 22:27:00,31.6,16.3,30.30,ESE,113,0.0,0.0,53,0.00,,,0.00,WUHU216HW,2013-01-28 03:27:00,
2013-01-27 22:32:00,31.6,16.3,30.29,ESE,113,0.0,0.0,53,0.00,,,0.00,WUHU216HW,2013-01-28 03:32:00,
2013-01-27 22:37:00,31.6,16.3,30.29,ESE,113,0.0,0.0,53,0.00,,,0.00,WUHU216HW,2013-01-28 03:37:00,
2013-01-27 22:41:00,31.6,16.8,30.29,ESE,113,0.0,0.0,54,0.00,,,0.00,WUHU216HW,2013-01-28 03:41:00,
2013-01-27 22:47:00,31.6,16.8,30.30,ESE,113,0.0,0.0,54,0.00,,,0.00,WUHU216HW,2013-01-28 03:47:00,
2013-01-27 22:52:00,31.6,17.2,30.30,ESE,113,0.0,0.0,55,0.00,,,0.00,WUHU216HW,2013-01-28 03:52:00,
2013-01-27 22:56:00,31.6,17.2,30.30,ESE,113,0.0,0.0,55,0.00,,,0.00,WUHU216HW,2013-01-28 03:56:00,
2013-01-27 23:02:00,31.4,17.0,30.29,East,90,0.0,0.0,55,0.00,,,0.00,WUHU216HW,2013-01-28 04:02:00,
2013-01-27 23:06:00,31.4,17.5,30.30,East,90,0.0,0.0,56,0.00,,,0.00,WUHU216HW,2013-01-28 04:06:00,
2013-01-27 23:11:00,31.4,17.5,30.29,East,90,0.0,0.0,56,0.00,,,0.00,WUHU216HW,2013-01-28 04:11:00,
2013-01-27 23:16:00,31.4,17.5,30.29,East,90,0.0,0.0,56,0.00,,,0.00,WUHU216HW,2013-01-28 04:16:00,
2013-01-27 23:21:00,31.6,18.1,30.29,ESE,113,0.0,0.0,57,0.00,,,0.00,WUHU216HW,2013-01-28 04:21:00,
2013-01-27 23:26:00,31.4,17.9,30.29,ESE,113,0.0,0.0,57,0.00,,,0.00,WUHU216HW,2013-01-28 04:26:00,
2013-01-27 23:31:00,31.4,17.9,30.28,ESE,113,0.0,0.0,57,0.00,,,0.00,WUHU216HW,2013-01-28 04:31:00,
2013-01-27 23:36:00,31.4,18.3,30.28,ESE,113,0.0,0.0,58,0.00,,,0.00,WUHU216HW,2013-01-28 04:36:00,
2013-01-27 23:41:00,31.4,18.3,30.27,ENE,68,0.0,0.0,58,0.00,,,0.00,WUHU216HW,2013-01-28 04:41:00,
2013-01-27 23:46:00,31.4,18.3,30.27,ESE,113,0.0,0.0,58,0.00,,,0.00,WUHU216HW,2013-01-28 04:46:00,
2013-01-27 23:51:00,31.4,18.9,30.27,ESE,113,0.0,0.0,59,0.00,,,0.00,WUHU216HW,2013-01-28 04:51:00,
2013-01-27 23:56:00,31.4,18.7,30.27,East,90,0.0,0.0,59,0.00,,,0.00,WUHU216HW,2013-01-28 04:56:00,